Weather History for Stigler, OK

Change the Weather History Date:

Thursday, August 8, 2013

  Actual Average (KJSV) Record (KJSV)
Temperature  
Mean Temperature 83 °F -  
Max Temperature 93 °F 93 °F 107 °F (1970)
Min Temperature 73 °F 68 °F 57 °F (1989)
Cooling Degree Days 18    
Growing Degree Days 33 (Base 50)    
Moisture  
Dew Point 70 °F    
Average Humidity 72    
Maximum Humidity 94    
Minimum Humidity 44    
Precipitation  
Precipitation 0.67 in - - ()
Sea Level Pressure  
Sea Level Pressure 29.88 in    
Wind  
Wind Speed 7 mph (ESE)    
Max Wind Speed 17 mph    
Max Gust Speed 26 mph    
Visibility 9 miles    
Events Rain , Thunderstorm    
Averages and records for this station are not official NWS values.
T = Trace of Precipitation, MM = Missing Value Source: NWS Daily Summary

Daily Weather History Graph

Daily Weather History Graph

Search for Another Location

Airport:

Trip Planner

Search our weather history database for the weather conditions in past years. The results will help you decide how hot, cold, wet, or windy it might be!

Date:

Astronomy

Aug. 08, 2013 Rise Set
Actual Time 6:34 AM CDT 8:16 PM CDT
Civil Twilight 6:07 AM CDT 8:43 PM CDT
Nautical Twilight 5:34 AM CDT 9:16 PM CDT
Astronomical Twilight 4:59 AM CDT 9:51 PM CDT
Moon 8:16 AM CDT (8/8) 9:03 PM CDT (8/8)
Length of Visible Light 14h 36m
Length of Day
13h 41m
Waxing Crescent, 3% of the Moon is Illuminated
Aug 8
Waxing Crescent
Aug 14
First Quarter
Aug 20
Full
Aug 28
Last Quarter
Sep 5
New

Hourly Weather History & Observations

Time (CDT) Temp. Heat Index Dew Point Humidity Pressure Visibility Wind Dir Wind Speed Gust Speed Precip Events Conditions
12:15 AM 86.0 °F 90.4 °F 69.8 °F 58% 29.85 in 10.0 mi SE 5.8 mph - N/A   Unknown
12:35 AM 84.2 °F 88.4 °F 69.8 °F 62% 29.84 in 10.0 mi ESE 4.6 mph - N/A   Unknown
12:55 AM 84.2 °F 89.6 °F 71.6 °F 66% 29.84 in 10.0 mi East 4.6 mph - N/A Thunderstorm Unknown
1:15 AM 84.2 °F 88.4 °F 69.8 °F 62% 29.84 in 10.0 mi ENE 3.5 mph - N/A   Unknown
1:35 AM 84.2 °F 89.6 °F 71.6 °F 66% 29.84 in 10.0 mi Calm Calm - N/A   Unknown
1:55 AM 82.4 °F 87.2 °F 71.6 °F 70% 29.87 in 9.0 mi West 5.8 mph - N/A Thunderstorm Unknown
2:15 AM 77.0 °F - 71.6 °F 83% 29.87 in 2.0 mi SW 15.0 mph 23.0 mph 0.19 in Rain , Thunderstorm Heavy Rain
2:35 AM 77.0 °F - 71.6 °F 83% 29.86 in 3.0 mi SSW 13.8 mph 19.6 mph 0.44 in Rain , Thunderstorm Rain
2:55 AM 80.6 °F 83.2 °F 68.0 °F 65% 29.84 in 8.0 mi NNW 5.8 mph 24.2 mph 0.60 in Rain , Thunderstorm Light Thunderstorms and Rain
3:15 AM 78.8 °F - 71.6 °F 78% 29.83 in 10.0 mi Calm Calm - N/A Thunderstorm Thunderstorm
3:35 AM 77.0 °F - 71.6 °F 83% 29.83 in 10.0 mi NNE 3.5 mph - N/A   Unknown
3:55 AM 77.0 °F - 71.6 °F 83% 29.83 in 10.0 mi ESE 3.5 mph - N/A   Unknown
4:15 AM 77.0 °F - 73.4 °F 89% 29.83 in 10.0 mi Calm Calm - N/A   Unknown
4:35 AM 77.0 °F - 73.4 °F 89% 29.84 in 10.0 mi Calm Calm - N/A   Unknown
4:55 AM 75.2 °F - 73.4 °F 94% 29.86 in 7.0 mi NNW 5.8 mph - N/A   Unknown
5:15 AM 77.0 °F - 73.4 °F 89% 29.87 in 9.0 mi NE 6.9 mph - N/A Thunderstorm Unknown
5:35 AM 77.0 °F - 71.6 °F 83% 29.86 in 10.0 mi NE 5.8 mph - N/A Thunderstorm Thunderstorm
5:55 AM 77.0 °F - 71.6 °F 83% 29.86 in 10.0 mi ENE 5.8 mph - N/A Thunderstorm Unknown
6:15 AM 77.0 °F - 71.6 °F 83% 29.86 in 10.0 mi ENE 8.1 mph - N/A   Unknown
6:35 AM 77.0 °F - 71.6 °F 83% 29.88 in 10.0 mi NNE 6.9 mph - N/A   Unknown
6:55 AM 77.0 °F - 73.4 °F 89% 29.89 in 10.0 mi ENE 6.9 mph - N/A   Unknown
7:15 AM 77.0 °F - 73.4 °F 89% 29.90 in 9.0 mi NE 8.1 mph - N/A   Unknown
7:35 AM 77.0 °F - 73.4 °F 89% 29.90 in 7.0 mi ENE 10.4 mph - N/A   Unknown
7:55 AM 77.0 °F - 73.4 °F 89% 29.91 in 8.0 mi East 9.2 mph - N/A   Unknown
8:15 AM 77.0 °F - 71.6 °F 83% 29.92 in 8.0 mi NNE 10.4 mph - N/A   Unknown
8:35 AM 77.0 °F - 71.6 °F 83% 29.94 in 10.0 mi NNE 9.2 mph - N/A   Unknown
8:55 AM 75.2 °F - 69.8 °F 83% 29.97 in 10.0 mi North 6.9 mph - N/A   Unknown
9:15 AM 77.0 °F - 69.8 °F 78% 29.95 in 10.0 mi ENE 10.4 mph - N/A Thunderstorm Unknown
9:35 AM 77.0 °F - 68.0 °F 74% 29.95 in 10.0 mi East 10.4 mph 18.4 mph N/A Thunderstorm Thunderstorm
9:55 AM 77.0 °F - 68.0 °F 74% 29.94 in 10.0 mi East 13.8 mph - N/A   Unknown
10:15 AM 77.0 °F - 69.8 °F 78% 29.93 in 10.0 mi ESE 15.0 mph 18.4 mph N/A   Unknown
10:35 AM 77.0 °F - 68.0 °F 74% 29.91 in 9.0 mi ESE 11.5 mph 21.9 mph N/A Rain Light Rain
10:55 AM 78.8 °F - 68.0 °F 69% 29.91 in 10.0 mi ESE 11.5 mph 19.6 mph N/A   Unknown
11:15 AM 82.4 °F 86.3 °F 69.8 °F 66% 29.91 in 10.0 mi ESE 12.7 mph - N/A   Unknown
11:35 AM 84.2 °F 87.3 °F 68.0 °F 58% 29.90 in 10.0 mi ESE 11.5 mph 20.7 mph N/A   Unknown
11:55 AM 84.2 °F 87.3 °F 68.0 °F 58% 29.90 in 10.0 mi ESE 9.2 mph 16.1 mph N/A   Unknown
12:15 PM 86.0 °F 89.4 °F 68.0 °F 55% 29.89 in 10.0 mi ESE 15.0 mph 19.6 mph N/A   Unknown
12:35 PM 86.0 °F 89.4 °F 68.0 °F 55% 29.89 in 9.0 mi SE 11.5 mph - N/A   Unknown
12:55 PM 87.8 °F 91.4 °F 68.0 °F 52% 29.89 in 10.0 mi SE 6.9 mph - N/A   Unknown
1:15 PM 89.6 °F 94.7 °F 69.8 °F 52% 29.89 in 9.0 mi SE 8.1 mph - N/A   Unknown
1:35 PM 89.6 °F 93.4 °F 68.0 °F 49% 29.88 in 9.0 mi Calm Calm - N/A   Unknown
1:55 PM 91.4 °F 96.8 °F 69.8 °F 49% 29.87 in 8.0 mi SSE 6.9 mph - N/A   Unknown
2:15 PM 93.2 °F 97.7 °F 68.0 °F 44% 29.87 in 8.0 mi South 8.1 mph - N/A   Unknown
2:35 PM 91.4 °F 95.4 °F 68.0 °F 46% 29.87 in 9.0 mi SSE 5.8 mph - N/A   Unknown
2:55 PM 91.4 °F 95.4 °F 68.0 °F 46% 29.87 in 8.0 mi South 5.8 mph - N/A   Unknown
3:15 PM 93.2 °F 97.7 °F 68.0 °F 44% 29.86 in 9.0 mi Calm Calm - N/A   Unknown
3:35 PM 93.2 °F 97.7 °F 68.0 °F 44% 29.86 in 7.0 mi East 4.6 mph - N/A   Unknown
3:55 PM 93.2 °F 97.7 °F 68.0 °F 44% 29.86 in 8.0 mi Calm Calm - N/A   Unknown
4:15 PM 93.2 °F 100.5 °F 71.6 °F 49% 29.86 in 8.0 mi NNE 11.5 mph - N/A   Unknown
4:35 PM 93.2 °F 100.5 °F 71.6 °F 49% 29.85 in 8.0 mi NE 10.4 mph - N/A Thunderstorm Unknown
4:55 PM 93.2 °F 100.5 °F 71.6 °F 49% 29.85 in 5.0 mi NE 11.5 mph - N/A Thunderstorm Unknown
5:15 PM 89.6 °F 93.4 °F 68.0 °F 49% 29.86 in 6.0 mi SE 16.1 mph - N/A Thunderstorm Unknown
5:35 PM 80.6 °F 82.3 °F 64.4 °F 58% 29.89 in 6.0 mi SSE 17.3 mph 26.5 mph N/A Thunderstorm Unknown
5:55 PM 77.0 °F - 68.0 °F 74% 29.89 in 6.0 mi SSE 11.5 mph - N/A Thunderstorm Haze
6:15 PM 73.4 °F - 66.2 °F 78% 29.90 in 5.0 mi South 17.3 mph 24.2 mph 0.02 in Rain , Thunderstorm Light Thunderstorms and Rain
6:35 PM 75.2 °F - 68.0 °F 78% 29.90 in 5.0 mi SW 15.0 mph 20.7 mph 0.03 in Rain , Thunderstorm Light Rain
6:55 PM 73.4 °F - 69.8 °F 88% 29.88 in 6.0 mi West 15.0 mph 21.9 mph 0.04 in Rain , Thunderstorm Light Thunderstorms and Rain
7:15 PM 75.2 °F - 69.8 °F 83% 29.85 in 3.0 mi NE 11.5 mph - 0.02 in Rain , Thunderstorm Light Rain
7:35 PM 77.0 °F - 71.6 °F 83% 29.86 in 10.0 mi South 8.1 mph - 0.03 in Thunderstorm Unknown
7:55 PM 75.2 °F - 69.8 °F 83% 29.87 in 10.0 mi SSW 9.2 mph 19.6 mph 0.03 in Thunderstorm Unknown
8:15 PM 75.2 °F - 69.8 °F 83% 29.87 in 10.0 mi South 9.2 mph - N/A Thunderstorm Unknown
8:35 PM 75.2 °F - 68.0 °F 78% 29.89 in 10.0 mi SSE 6.9 mph - N/A   Unknown
8:55 PM 75.2 °F - 69.8 °F 83% 29.89 in 10.0 mi ENE 3.5 mph - N/A   Unknown
9:15 PM 75.2 °F - 69.8 °F 83% 29.90 in 10.0 mi NE 4.6 mph - N/A   Unknown
9:35 PM 75.2 °F - 69.8 °F 83% 29.91 in 10.0 mi ENE 3.5 mph - N/A Thunderstorm Unknown
9:55 PM 73.4 °F - 69.8 °F 88% 29.92 in 10.0 mi ENE 8.1 mph - N/A   Unknown
10:15 PM 73.4 °F - 69.8 °F 88% 29.92 in 10.0 mi East 8.1 mph - N/A   Unknown
10:35 PM 73.4 °F - 69.8 °F 88% 29.93 in 10.0 mi SE 9.2 mph - N/A   Unknown
10:55 PM 73.4 °F - 68.0 °F 83% 29.94 in 10.0 mi SSE 9.2 mph - N/A   Unknown
11:15 PM 73.4 °F - 68.0 °F 83% 29.94 in 10.0 mi SE 8.1 mph - N/A   Unknown
11:35 PM 73.4 °F - 68.0 °F 83% 29.94 in 10.0 mi SE 9.2 mph - N/A   Unknown
11:55 PM 73.4 °F - 68.0 °F 83% 29.93 in 10.0 mi SE 10.4 mph - N/A   Unknown